TimeCST,TemperatureF,Dew PointF,Humidity,Sea Level PressureIn,VisibilityMPH,Wind Direction,Wind SpeedMPH,Gust SpeedMPH,PrecipitationIn,Events,Conditions,WindDirDegrees,DateUTC
1:53 AM,60.1,55.0,83,29.77,10.0,SSW,8.1,-,N/A,,Clear,200,2013-03-05 07:53:00
2:31 AM,60.8,55.4,82,29.78,10.0,SW,8.1,-,N/A,,Mostly Cloudy,220,2013-03-05 08:31:00
2:53 AM,60.8,55.4,82,29.78,10.0,SSW,10.4,-,N/A,,Overcast,210,2013-03-05 08:53:00
3:21 AM,60.8,55.4,82,29.79,10.0,SSW,8.1,-,N/A,,Overcast,210,2013-03-05 09:21:00
3:53 AM,61.0,55.9,83,29.78,10.0,SSW,6.9,-,N/A,,Overcast,210,2013-03-05 09:53:00
4:53 AM,61.0,55.9,83,29.82,10.0,WSW,8.1,-,N/A,,Overcast,250,2013-03-05 10:53:00
5:29 AM,60.8,53.6,77,29.83,10.0,NW,13.8,-,N/A,,Scattered Clouds,310,2013-03-05 11:29:00
5:53 AM,57.0,51.1,81,29.87,10.0,NW,18.4,25.3,N/A,,Mostly Cloudy,320,2013-03-05 11:53:00
6:34 AM,55.4,46.4,72,29.90,10.0,NW,15.0,27.6,N/A,,Overcast,310,2013-03-05 12:34:00
6:53 AM,53.6,46.4,77,29.90,10.0,NW,16.1,-,N/A,Rain,Light Rain,320,2013-03-05 12:53:00
7:15 AM,51.8,42.8,71,29.95,10.0,NW,23.0,36.8,0.00,Rain,Light Rain,310,2013-03-05 13:15:00
7:53 AM,46.0,39.0,76,29.99,10.0,NW,18.4,31.1,0.01,Rain,Light Rain,320,2013-03-05 13:53:00
8:53 AM,44.1,39.0,82,30.05,7.0,NW,17.3,26.5,0.00,Rain,Light Rain,310,2013-03-05 14:53:00
9:53 AM,48.0,39.9,74,30.06,10.0,NW,20.7,33.4,0.01,,Partly Cloudy,320,2013-03-05 15:53:00
10:15 AM,48.2,37.4,66,30.08,10.0,NW,20.7,32.2,N/A,,Mostly Cloudy,320,2013-03-05 16:15:00
10:45 AM,50.0,37.4,62,30.09,10.0,NW,19.6,31.1,N/A,,Overcast,310,2013-03-05 16:45:00
10:53 AM,51.1,36.0,56,30.09,10.0,NW,24.2,33.4,N/A,,Mostly Cloudy,320,2013-03-05 16:53:00
11:53 AM,52.0,33.1,49,30.10,10.0,NW,18.4,39.1,N/A,,Partly Cloudy,310,2013-03-05 17:53:00
12:22 PM,53.6,30.2,41,30.11,10.0,WNW,20.7,32.2,N/A,,Partly Cloudy,300,2013-03-05 18:22:00
12:53 PM,54.0,30.9,41,30.09,10.0,NW,20.7,26.5,N/A,,Clear,310,2013-03-05 18:53:00
1:53 PM,57.0,27.0,32,30.08,10.0,WNW,20.7,27.6,N/A,,Clear,290,2013-03-05 19:53:00
2:53 PM,57.0,18.0,22,30.10,10.0,West,23.0,31.1,N/A,,Clear,280,2013-03-05 20:53:00
3:53 PM,55.9,17.1,22,30.13,10.0,WNW,19.6,27.6,N/A,,Clear,290,2013-03-05 21:53:00
4:53 PM,54.0,18.0,24,30.14,10.0,NW,18.4,25.3,N/A,,Clear,310,2013-03-05 22:53:00
5:53 PM,50.0,19.9,31,30.17,10.0,WNW,10.4,19.6,N/A,,Clear,300,2013-03-05 23:53:00
6:53 PM,48.0,19.9,33,30.18,10.0,WNW,12.7,-,N/A,,Clear,300,2013-03-06 00:53:00
7:53 PM,46.9,19.9,34,30.22,10.0,WNW,10.4,-,N/A,,Clear,290,2013-03-06 01:53:00
8:53 PM,43.0,21.9,43,30.23,10.0,West,8.1,-,N/A,,Clear,280,2013-03-06 02:53:00
9:53 PM,43.0,21.9,43,30.26,10.0,WNW,9.2,-,N/A,,Clear,290,2013-03-06 03:53:00
10:53 PM,41.0,23.0,49,30.27,10.0,NW,6.9,-,N/A,,Clear,310,2013-03-06 04:53:00
11:53 PM,41.0,21.9,47,30.27,10.0,WNW,8.1,-,N/A,,Clear,300,2013-03-06 05:53:00